| time (UTC) | temp C | wind direction | speed KPH | gust KPH | rain 1hr cm | rain 24hr cm | rain mn cm | humidity % | barometer mb |
| 20260906132002 | 12 | 198 | 0.0 | 4.8 | 0.00 | 0.00 | 0.00 | 93 | 1014.5 |
| 20260906131502 | 12 | 199 | 1.6 | 4.8 | 0.00 | 0.00 | 0.00 | 93 | 1014.5 |
| 20260906131002 | 12 | 200 | 1.6 | 6.4 | 0.00 | 0.00 | 0.00 | 92 | 1014.5 |
| 20260906130502 | 12 | 200 | 1.6 | 6.4 | 0.00 | 0.00 | 0.00 | 92 | 1014.5 |
| 20260906130003 | 12 | 200 | 1.6 | 4.8 | 0.00 | 0.00 | 0.00 | 92 | 1014.5 |
| 20260906125502 | 12 | 198 | 0.0 | 4.8 | 0.00 | 0.00 | 0.00 | 93 | 1014.5 |
| 20260906125023 | 12 | 200 | 0.0 | 4.8 | 0.00 | 0.00 | 0.00 | 93 | 1014.5 |
| 20260906124502 | 12 | 203 | 0.0 | 4.8 | 0.00 | 0.00 | 0.00 | 92 | 1014.5 |
| 20260906124002 | 12 | 231 | 0.0 | 4.8 | 0.00 | 0.00 | 0.00 | 92 | 1014.5 |
| 20260906123024 | 12 | 229 | 1.6 | 6.4 | 0.00 | 0.00 | 0.00 | 92 | 1014.5 |
| 20260906122002 | 12 | 222 | 0.0 | 4.8 | 0.00 | 0.00 | 0.00 | 93 | 1014.6 |
| 20260906121502 | 12 | 248 | 1.6 | 4.8 | 0.00 | 0.00 | 0.00 | 93 | 1014.6 |
| 20260906121002 | 12 | 251 | 3.2 | 11.3 | 0.00 | 0.00 | 0.00 | 93 | 1014.6 |
| 20260906120503 | 12 | 255 | 3.2 | 11.3 | 0.00 | 0.00 | 0.00 | 93 | 1014.6 |
| 20260906120002 | 12 | 254 | 3.2 | 6.4 | 0.00 | 0.00 | 0.00 | 92 | 1014.6 |
| 20260906115502 | 12 | 248 | 1.6 | 6.4 | 0.00 | 0.00 | 0.00 | 92 | 1014.6 |
| 20260906115002 | 12 | 251 | 1.6 | 4.8 | 0.00 | 0.00 | 0.00 | 92 | 1014.6 |
| 20260906114502 | 12 | 251 | 1.6 | 6.4 | 0.00 | 0.00 | 0.00 | 92 | 1014.6 |
| 20260906114002 | 12 | 251 | 1.6 | 6.4 | 0.00 | 0.00 | 0.00 | 92 | 1014.6 |
| 20260906113523 | 12 | 250 | 1.6 | 6.4 | 0.00 | 0.00 | 0.00 | 92 | 1014.6 |
| 20260906113023 | 13 | 248 | 1.6 | 11.3 | 0.00 | 0.00 | 0.00 | 92 | 1014.6 |
| 20260906112503 | 13 | 244 | 3.2 | 11.3 | 0.00 | 0.00 | 0.00 | 93 | 1014.5 |
| 20260906112002 | 13 | 251 | 1.6 | 9.7 | 0.00 | 0.00 | 0.00 | 93 | 1014.5 |
| 20260906111502 | 13 | 260 | 1.6 | 9.7 | 0.00 | 0.00 | 0.00 | 93 | 1014.5 |
| 20260906111002 | 13 | 249 | 1.6 | 6.4 | 0.00 | 0.00 | 0.00 | 93 | 1014.5 |
| 20260906110523 | 13 | 248 | 1.6 | 4.8 | 0.00 | 0.00 | 0.00 | 93 | 1014.5 |
| 20260906110023 | 13 | 243 | 1.6 | 9.7 | 0.00 | 0.00 | 0.00 | 93 | 1014.8 |
| 20260906105502 | 13 | 241 | 3.2 | 9.7 | 0.00 | 0.00 | 0.00 | 93 | 1014.8 |
| 20260906105002 | 13 | 245 | 3.2 | 12.9 | 0.00 | 0.00 | 0.00 | 93 | 1014.8 |
| 20260906104523 | 13 | 246 | 1.6 | 12.9 | 0.00 | 0.00 | 0.00 | 93 | 1014.8 |
| 20260906104023 | 13 | 247 | 1.6 | 6.4 | 0.00 | 0.00 | 0.00 | 93 | 1014.8 |
| 20260906103523 | 13 | 251 | 1.6 | 9.7 | 0.00 | 0.00 | 0.00 | 92 | 1014.8 |
| 20260906103024 | 13 | 246 | 3.2 | 11.3 | 0.00 | 0.00 | 0.00 | 92 | 1014.8 |
| 20260906102503 | 13 | 246 | 3.2 | 11.3 | 0.00 | 0.00 | 0.00 | 92 | 1014.8 |
| 20260906102002 | 13 | 247 | 1.6 | 6.4 | 0.00 | 0.00 | 0.00 | 92 | 1014.8 |
| 20260906101524 | 13 | 246 | 1.6 | 8.0 | 0.00 | 0.00 | 0.00 | 93 | 1014.8 |
| 20260906101003 | 13 | 243 | 1.6 | 8.0 | 0.00 | 0.00 | 0.00 | 92 | 1014.8 |
| 20260906100502 | 13 | 243 | 3.2 | 8.0 | 0.00 | 0.00 | 0.00 | 92 | 1014.8 |
| 20260906100002 | 13 | 245 | 1.6 | 8.0 | 0.00 | 0.00 | 0.00 | 92 | 1014.8 |
| 20260906095502 | 13 | 243 | 3.2 | 9.7 | 0.00 | 0.00 | 0.00 | 92 | 1014.8 |
| 20260906095024 | 13 | 241 | 1.6 | 9.7 | 0.00 | 0.00 | 0.00 | 92 | 1014.8 |
| 20260906094502 | 13 | 240 | 1.6 | 8.0 | 0.00 | 0.00 | 0.00 | 92 | 1014.8 |
| 20260906094002 | 13 | 241 | 1.6 | 8.0 | 0.00 | 0.00 | 0.00 | 92 | 1014.8 |
| 20260906093502 | 13 | 254 | 0.0 | 4.8 | 0.00 | 0.00 | 0.00 | 92 | 1014.8 |
| 20260906093024 | 13 | 257 | 1.6 | 6.4 | 0.00 | 0.00 | 0.00 | 92 | 1014.8 |
| 20260906092524 | 13 | 259 | 0.0 | 6.4 | 0.00 | 0.00 | 0.00 | 92 | 1014.8 |
| 20260906092002 | 13 | 194 | 0.0 | 1.6 | 0.00 | 0.00 | 0.00 | 92 | 1014.8 |
| 20260906091502 | 13 | 194 | 0.0 | 3.2 | 0.00 | 0.00 | 0.00 | 92 | 1014.8 |
| 20260906091002 | 13 | 194 | 0.0 | 4.8 | 0.00 | 0.00 | 0.00 | 92 | 1014.8 |
| 20260906090502 | 13 | 191 | 1.6 | 6.4 | 0.00 | 0.00 | 0.00 | 92 | 1014.8 |
| 20260906090003 | 13 | 184 | 3.2 | 8.0 | 0.00 | 0.00 | 0.00 | 92 | 1014.8 |
| 20260906085502 | 13 | 175 | 3.2 | 8.0 | 0.00 | 0.00 | 0.00 | 92 | 1014.8 |
| 20260906085002 | 13 | 169 | 1.6 | 8.0 | 0.00 | 0.00 | 0.00 | 92 | 1014.8 |
| 20260906084524 | 13 | 163 | 1.6 | 8.0 | 0.00 | 0.00 | 0.00 | 92 | 1014.8 |
| 20260906084002 | 13 | 164 | 1.6 | 8.0 | 0.00 | 0.00 | 0.00 | 92 | 1014.8 |
| 20260906083502 | 13 | 167 | 1.6 | 6.4 | 0.00 | 0.00 | 0.00 | 92 | 1014.8 |
| 20260906083002 | 13 | 165 | 1.6 | 6.4 | 0.00 | 0.00 | 0.00 | 92 | 1014.8 |
| 20260906082502 | 13 | 166 | 1.6 | 8.0 | 0.00 | 0.00 | 0.00 | 92 | 1014.8 |
| 20260906082003 | 13 | 169 | 1.6 | 8.0 | 0.00 | 0.00 | 0.00 | 91 | 1014.8 |
| 20260906081523 | 13 | 170 | 1.6 | 9.7 | 0.00 | 0.00 | 0.00 | 91 | 1014.8 |
| 20260906081002 | 13 | 171 | 1.6 | 9.7 | 0.00 | 0.00 | 0.00 | 91 | 1014.8 |
| 20260906080524 | 13 | 168 | 1.6 | 6.4 | 0.00 | 0.00 | 0.00 | 91 | 1014.8 |
| 20260906080003 | 13 | 159 | 1.6 | 9.7 | 0.00 | 0.00 | 0.00 | 91 | 1014.8 |
| 20260906075502 | 13 | 172 | 1.6 | 8.0 | 0.00 | 0.00 | 0.00 | 91 | 1014.8 |
| 20260906075002 | 13 | 187 | 1.6 | 8.0 | 0.00 | 0.00 | 0.00 | 91 | 1014.8 |
| 20260906074503 | 13 | 184 | 1.6 | 9.7 | 0.00 | 0.00 | 0.00 | 91 | 1014.8 |
| 20260906074002 | 13 | 183 | 1.6 | 9.7 | 0.00 | 0.00 | 0.00 | 90 | 1014.8 |
| 20260906073502 | 13 | 181 | 1.6 | 6.4 | 0.00 | 0.00 | 0.00 | 90 | 1014.8 |
| 20260906073002 | 13 | 172 | 1.6 | 6.4 | 0.00 | 0.00 | 0.00 | 90 | 1014.8 |
| 20260906072502 | 13 | 173 | 1.6 | 8.0 | 0.00 | 0.00 | 0.00 | 90 | 1014.8 |
| 20260906072023 | 13 | 176 | 1.6 | 8.0 | 0.00 | 0.00 | 0.00 | 90 | 1014.8 |
| 20260906071524 | 13 | 180 | 0.0 | 4.8 | 0.00 | 0.00 | 0.00 | 90 | 1014.8 |
| 20260906071002 | 13 | 179 | 0.0 | 4.8 | 0.00 | 0.00 | 0.00 | 89 | 1014.8 |
| 20260906070524 | 13 | 177 | 1.6 | 4.8 | 0.00 | 0.00 | 0.00 | 89 | 1014.8 |
| 20260906070006 | 13 | 176 | 0.0 | 4.8 | 0.00 | 0.00 | 0.00 | 89 | 1014.8 |
| 20260906065503 | 13 | 179 | 1.6 | 4.8 | 0.00 | 0.00 | 0.00 | 89 | 1014.8 |
| 20260906065003 | 13 | 181 | 1.6 | 6.4 | 0.00 | 0.00 | 0.00 | 89 | 1014.8 |
| 20260906064503 | 14 | 183 | 1.6 | 6.4 | 0.00 | 0.00 | 0.00 | 89 | 1014.8 |
| 20260906064002 | 14 | 187 | 1.6 | 4.8 | 0.00 | 0.00 | 0.00 | 88 | 1014.8 |
| 20260906063502 | 14 | 187 | 1.6 | 4.8 | 0.00 | 0.00 | 0.00 | 88 | 1014.8 |
| 20260906063002 | 14 | 187 | 0.0 | 4.8 | 0.00 | 0.00 | 0.00 | 88 | 1014.8 |
| 20260906062524 | 14 | 187 | 0.0 | 6.4 | 0.00 | 0.00 | 0.00 | 88 | 1014.8 |
| 20260906062003 | 14 | 187 | 0.0 | 6.4 | 0.00 | 0.00 | 0.00 | 87 | 1014.8 |
| 20260906061524 | 14 | 188 | 0.0 | 3.2 | 0.00 | 0.00 | 0.00 | 87 | 1014.8 |
| 20260906061003 | 14 | 187 | 0.0 | 4.8 | 0.00 | 0.00 | 0.00 | 87 | 1014.8 |
| 20260906060502 | 14 | 187 | 1.6 | 6.4 | 0.00 | 0.00 | 0.00 | 87 | 1014.8 |
| 20260906060003 | 14 | 188 | 1.6 | 6.4 | 0.00 | 0.00 | 0.00 | 86 | 1014.8 |
| 20260906055503 | 14 | 188 | 1.6 | 4.8 | 0.00 | 0.00 | 0.00 | 86 | 1014.8 |
| 20260906055024 | 14 | 188 | 0.0 | 3.2 | 0.00 | 0.00 | 0.00 | 86 | 1014.8 |
| 20260906054503 | 14 | 188 | 0.0 | 3.2 | 0.00 | 0.00 | 0.00 | 86 | 1014.8 |
| 20260906054002 | 14 | 188 | 1.6 | 6.4 | 0.00 | 0.00 | 0.00 | 85 | 1014.8 |
| 20260906053524 | 14 | 188 | 1.6 | 6.4 | 0.00 | 0.00 | 0.00 | 85 | 1014.8 |
| 20260906053002 | 14 | 189 | 0.0 | 4.8 | 0.00 | 0.00 | 0.00 | 85 | 1014.8 |
| 20260906052524 | 14 | 191 | 0.0 | 4.8 | 0.00 | 0.00 | 0.00 | 85 | 1014.8 |
| 20260906052003 | 15 | 192 | 0.0 | 4.8 | 0.00 | 0.00 | 0.00 | 84 | 1014.8 |
| 20260906051503 | 15 | 192 | 0.0 | 4.8 | 0.00 | 0.00 | 0.00 | 84 | 1014.8 |
| 20260906051024 | 15 | 192 | 0.0 | 1.6 | 0.00 | 0.00 | 0.00 | 84 | 1014.8 |
| 20260906050524 | 15 | 192 | 0.0 | 4.8 | 0.00 | 0.00 | 0.00 | 84 | 1014.8 |
| 20260906050002 | 15 | 194 | 0.0 | 4.8 | 0.00 | 0.00 | 0.00 | 83 | 1014.8 |
| 20260906045502 | 15 | 197 | 1.6 | 4.8 | 0.00 | 0.00 | 0.00 | 83 | 1014.8 |
| 20260906045002 | 15 | 198 | 1.6 | 6.4 | 0.00 | 0.00 | 0.00 | 83 | 1014.8 |
| 20260906044503 | 15 | 199 | 3.2 | 6.4 | 0.00 | 0.00 | 0.00 | 82 | 1014.8 |
| 20260906044002 | 15 | 200 | 3.2 | 8.0 | 0.00 | 0.00 | 0.00 | 82 | 1014.8 |
| 20260906043524 | 15 | 202 | 3.2 | 8.0 | 0.00 | 0.00 | 0.00 | 81 | 1014.8 |
| 20260906043003 | 15 | 206 | 1.6 | 4.8 | 0.00 | 0.00 | 0.00 | 80 | 1014.8 |
| 20260906042503 | 15 | 210 | 1.6 | 6.4 | 0.00 | 0.00 | 0.00 | 79 | 1014.8 |
| 20260906042002 | 15 | 212 | 1.6 | 6.4 | 0.00 | 0.00 | 0.00 | 79 | 1014.8 |
| 20260906041503 | 15 | 213 | 1.6 | 4.8 | 0.00 | 0.00 | 0.00 | 78 | 1014.8 |
| 20260906041003 | 15 | 214 | 0.0 | 4.8 | 0.00 | 0.00 | 0.00 | 77 | 1014.8 |
| 20260906040502 | 15 | 215 | 0.0 | 4.8 | 0.00 | 0.00 | 0.00 | 77 | 1014.8 |
| 20260906040003 | 15 | 215 | 0.0 | 4.8 | 0.00 | 0.00 | 0.00 | 77 | 1014.8 |
| 20260906035503 | 15 | 216 | 0.0 | 4.8 | 0.00 | 0.00 | 0.00 | 77 | 1014.8 |
| 20260906035003 | 16 | 217 | 1.6 | 4.8 | 0.00 | 0.00 | 0.00 | 77 | 1014.8 |
| 20260906034503 | 16 | 217 | 1.6 | 4.8 | 0.00 | 0.00 | 0.00 | 76 | 1014.8 |
| 20260906034003 | 16 | 222 | 1.6 | 4.8 | 0.00 | 0.00 | 0.00 | 76 | 1014.8 |
| 20260906033503 | 16 | 234 | 0.0 | 4.8 | 0.00 | 0.00 | 0.00 | 76 | 1014.8 |
| 20260906033003 | 16 | 278 | 0.0 | 4.8 | 0.00 | 0.00 | 0.00 | 76 | 1014.8 |
| 20260906032502 | 16 | 278 | 0.0 | 4.8 | 0.00 | 0.00 | 0.00 | 76 | 1014.8 |
| 20260906032024 | 16 | 281 | 1.6 | 4.8 | 0.00 | 0.00 | 0.00 | 75 | 1014.8 |
| 20260906031503 | 16 | 282 | 1.6 | 4.8 | 0.00 | 0.00 | 0.00 | 75 | 1014.8 |
| 20260906031003 | 16 | 285 | 0.0 | 4.8 | 0.00 | 0.00 | 0.00 | 75 | 1014.8 |
| 20260906030503 | 16 | 286 | 0.0 | 4.8 | 0.00 | 0.00 | 0.00 | 74 | 1014.8 |
| 20260906030003 | 16 | 287 | 0.0 | 3.2 | 0.00 | 0.00 | 0.00 | 74 | 1014.8 |
| 20260906025503 | 16 | 287 | 0.0 | 3.2 | 0.00 | 0.00 | 0.00 | 74 | 1014.8 |
| 20260906025003 | 17 | 287 | 0.0 | 3.2 | 0.00 | 0.00 | 0.00 | 73 | 1014.8 |
| 20260906024503 | 17 | 288 | 0.0 | 4.8 | 0.00 | 0.00 | 0.00 | 73 | 1014.8 |
| 20260906024024 | 17 | 288 | 0.0 | 4.8 | 0.00 | 0.00 | 0.00 | 73 | 1014.8 |
| 20260906023524 | 17 | 305 | 0.0 | 3.2 | 0.00 | 0.00 | 0.00 | 72 | 1014.8 |
| 20260906023003 | 17 | 287 | 1.6 | 4.8 | 0.00 | 0.00 | 0.00 | 71 | 1014.8 |
| 20260906022524 | 17 | 282 | 1.6 | 4.8 | 0.00 | 0.00 | 0.00 | 71 | 1014.8 |
| 20260906022003 | 17 | 266 | 1.6 | 6.4 | 0.00 | 0.00 | 0.00 | 70 | 1014.8 |
| 20260906021503 | 17 | 259 | 1.6 | 6.4 | 0.00 | 0.00 | 0.00 | 69 | 1014.8 |
| 20260906021024 | 17 | 269 | 1.6 | 6.4 | 0.00 | 0.00 | 0.00 | 69 | 1014.8 |
| 20260906020503 | 18 | 300 | 1.6 | 4.8 | 0.00 | 0.00 | 0.00 | 68 | 1014.8 |
| 20260906020003 | 18 | 292 | 1.6 | 4.8 | 0.00 | 0.00 | 0.00 | 68 | 1014.8 |
| 20260906015503 | 18 | 294 | 1.6 | 4.8 | 0.00 | 0.00 | 0.00 | 68 | 1014.8 |
| 20260906015003 | 18 | 308 | 1.6 | 4.8 | 0.00 | 0.00 | 0.00 | 67 | 1014.8 |
| 20260906014503 | 18 | 294 | 1.6 | 4.8 | 0.00 | 0.00 | 0.00 | 66 | 1014.8 |
| 20260906014003 | 18 | 276 | 1.6 | 11.3 | 0.00 | 0.00 | 0.00 | 65 | 1014.8 |
| 20260906013502 | 18 | 277 | 3.2 | 11.3 | 0.00 | 0.00 | 0.00 | 64 | 1014.8 |
| 20260906013003 | 19 | 285 | 1.6 | 8.0 | 0.00 | 0.00 | 0.00 | 63 | 1014.8 |
| 20260906012503 | 19 | 301 | 1.6 | 8.0 | 0.00 | 0.00 | 0.00 | 63 | 1014.8 |
| 20260906012003 | 19 | 313 | 1.6 | 6.4 | 0.00 | 0.00 | 0.00 | 63 | 1014.8 |
| 20260906011503 | 20 | 314 | 1.6 | 6.4 | 0.00 | 0.00 | 0.00 | 63 | 1014.8 |
| 20260906011003 | 20 | 317 | 1.6 | 8.0 | 0.00 | 0.00 | 0.00 | 62 | 1014.8 |
| 20260906010503 | 20 | 309 | 1.6 | 9.7 | 0.00 | 0.00 | 0.00 | 62 | 1014.8 |
| 20260906010003 | 20 | 308 | 1.6 | 9.7 | 0.00 | 0.00 | 0.00 | 63 | 1014.8 |
| 20260906005503 | 20 | 313 | 3.2 | 8.0 | 0.00 | 0.00 | 0.00 | 64 | 1014.8 |
| 20260906005003 | 20 | 324 | 3.2 | 9.7 | 0.00 | 0.00 | 0.00 | 65 | 1014.8 |
| 20260906004503 | 20 | 317 | 3.2 | 9.7 | 0.00 | 0.00 | 0.00 | 65 | 1014.8 |
| 20260906004003 | 20 | 321 | 1.6 | 9.7 | 0.00 | 0.00 | 0.00 | 65 | 1014.8 |
| 20260906003524 | 20 | 338 | 3.2 | 12.9 | 0.00 | 0.00 | 0.00 | 66 | 1014.8 |
| 20260906003003 | 20 | 325 | 3.2 | 12.9 | 0.00 | 0.00 | 0.00 | 65 | 1014.8 |
| 20260906002503 | 20 | 312 | 3.2 | 8.0 | 0.00 | 0.00 | 0.00 | 64 | 1014.8 |
| 20260906002003 | 20 | 303 | 3.2 | 12.9 | 0.00 | 0.00 | 0.00 | 63 | 1014.8 |
| 20260906001503 | 20 | 309 | 4.8 | 16.1 | 0.00 | 0.00 | 0.00 | 61 | 1014.8 |
| 20260906001024 | 20 | 324 | 4.8 | 17.7 | 0.00 | 0.00 | 0.00 | 60 | 1014.8 |
| 20260906000524 | 21 | 320 | 4.8 | 17.7 | 0.00 | 0.00 | 0.00 | 59 | 1014.8 |
| 20260906000003 | 21 | 310 | 4.8 | 19.3 | 0.00 | 0.00 | 0.00 | 56 | 1014.8 |
| 20260905235503 | 21 | 325 | 4.8 | 24.1 | 0.00 | 0.00 | 0.00 | 56 | 1014.8 |
| 20260905235003 | 21 | 324 | 4.8 | 24.1 | 0.00 | 0.00 | 0.00 | 53 | 1014.8 |
| 20260905234503 | 21 | 324 | 4.8 | 20.9 | 0.00 | 0.00 | 0.00 | 52 | 1014.8 |
| 20260905234024 | 22 | 325 | 6.4 | 20.9 | 0.00 | 0.00 | 0.00 | 53 | 1014.8 |
| 20260905233503 | 22 | 325 | 6.4 | 22.5 | 0.00 | 0.00 | 0.00 | 49 | 1014.8 |
| 20260905233003 | 22 | 327 | 4.8 | 22.5 | 0.00 | 0.00 | 0.00 | 50 | 1014.8 |
| 20260905232524 | 22 | 329 | 4.8 | 17.7 | 0.00 | 0.00 | 0.00 | 50 | 1014.8 |
| 20260905232024 | 22 | 330 | 4.8 | 20.9 | 0.00 | 0.00 | 0.00 | 49 | 1014.8 |
| 20260905231503 | 22 | 323 | 4.8 | 20.9 | 0.00 | 0.00 | 0.00 | 49 | 1014.8 |
| 20260905231003 | 22 | 332 | 6.4 | 19.3 | 0.00 | 0.00 | 0.00 | 51 | 1014.8 |
| 20260905230503 | 22 | 328 | 4.8 | 19.3 | 0.00 | 0.00 | 0.00 | 51 | 1014.8 |
| 20260905230003 | 22 | 299 | 3.2 | 12.9 | 0.00 | 0.00 | 0.00 | 50 | 1014.8 |
| 20260905225524 | 22 | 274 | 4.8 | 14.5 | 0.00 | 0.00 | 0.00 | 51 | 1014.8 |
| 20260905225024 | 22 | 266 | 4.8 | 17.7 | 0.00 | 0.00 | 0.00 | 51 | 1014.8 |
| 20260905224503 | 22 | 292 | 4.8 | 17.7 | 0.00 | 0.00 | 0.00 | 50 | 1014.8 |
| 20260905224003 | 23 | 322 | 4.8 | 12.9 | 0.00 | 0.00 | 0.00 | 50 | 1014.8 |
| 20260905223503 | 23 | 321 | 4.8 | 12.9 | 0.00 | 0.00 | 0.00 | 50 | 1014.8 |
| 20260905223003 | 23 | 326 | 4.8 | 22.5 | 0.00 | 0.00 | 0.00 | 48 | 1014.8 |
| 20260905222503 | 23 | 328 | 4.8 | 22.5 | 0.00 | 0.00 | 0.00 | 48 | 1014.8 |
| 20260905222003 | 23 | 315 | 4.8 | 14.5 | 0.00 | 0.00 | 0.00 | 48 | 1014.8 |
| 20260905221503 | 23 | 310 | 4.8 | 16.1 | 0.00 | 0.00 | 0.00 | 46 | 1014.8 |
| 20260905221003 | 23 | 311 | 4.8 | 16.1 | 0.00 | 0.00 | 0.00 | 46 | 1014.8 |
| 20260905220503 | 23 | 333 | 3.2 | 16.1 | 0.00 | 0.00 | 0.00 | 46 | 1014.8 |
| 20260905220003 | 23 | 336 | 4.8 | 17.7 | 0.00 | 0.00 | 0.00 | 47 | 1014.8 |
| 20260905215503 | 23 | 322 | 4.8 | 17.7 | 0.00 | 0.00 | 0.00 | 46 | 1014.8 |
| 20260905215024 | 23 | 296 | 4.8 | 16.1 | 0.00 | 0.00 | 0.00 | 48 | 1014.8 |
| 20260905214503 | 23 | 278 | 4.8 | 19.3 | 0.00 | 0.00 | 0.00 | 46 | 1014.8 |
| 20260905214003 | 23 | 302 | 4.8 | 12.9 | 0.00 | 0.00 | 0.00 | 44 | 1014.4 |
| 20260905213524 | 23 | 313 | 4.8 | 12.9 | 0.00 | 0.00 | 0.00 | 44 | 1014.4 |
| 20260905213003 | 23 | 278 | 3.2 | 14.5 | 0.00 | 0.00 | 0.00 | 46 | 1014.4 |
| 20260905212503 | 23 | 275 | 4.8 | 14.5 | 0.00 | 0.00 | 0.00 | 46 | 1014.4 |
| 20260905212024 | 23 | 271 | 4.8 | 14.5 | 0.00 | 0.00 | 0.00 | 45 | 1014.4 |
| 20260905211524 | 24 | 267 | 4.8 | 12.9 | 0.00 | 0.00 | 0.00 | 43 | 1014.4 |
| 20260905211003 | 24 | 276 | 3.2 | 12.9 | 0.00 | 0.00 | 0.00 | 41 | 1014.4 |
| 20260905210503 | 24 | 274 | 3.2 | 12.9 | 0.00 | 0.00 | 0.00 | 41 | 1014.4 |
| 20260905210003 | 24 | 287 | 3.2 | 12.9 | 0.00 | 0.00 | 0.00 | 41 | 1014.4 |
| 20260905205503 | 23 | 289 | 4.8 | 11.3 | 0.00 | 0.00 | 0.00 | 42 | 1014.4 |
| 20260905205003 | 23 | 259 | 4.8 | 17.7 | 0.00 | 0.00 | 0.00 | 41 | 1014.4 |
| 20260905204503 | 23 | 261 | 3.2 | 17.7 | 0.00 | 0.00 | 0.00 | 41 | 1014.4 |
| 20260905204003 | 23 | 302 | 3.2 | 14.5 | 0.00 | 0.00 | 0.00 | 41 | 1014.4 |
| 20260905203503 | 23 | 321 | 3.2 | 12.9 | 0.00 | 0.00 | 0.00 | 44 | 1014.4 |
| 20260905203003 | 23 | 318 | 3.2 | 9.7 | 0.00 | 0.00 | 0.00 | 45 | 1014.4 |
| 20260905202503 | 23 | 300 | 3.2 | 9.7 | 0.00 | 0.00 | 0.00 | 46 | 1014.4 |
| 20260905202003 | 23 | 267 | 3.2 | 14.5 | 0.00 | 0.00 | 0.00 | 47 | 1014.4 |
| 20260905201503 | 23 | 270 | 4.8 | 14.5 | 0.00 | 0.00 | 0.00 | 47 | 1014.4 |
| 20260905201003 | 23 | 265 | 3.2 | 12.9 | 0.00 | 0.00 | 0.00 | 48 | 1014.4 |
| 20260905200503 | 22 | 271 | 3.2 | 9.7 | 0.00 | 0.00 | 0.00 | 46 | 1014.4 |
| 20260905200003 | 22 | 258 | 3.2 | 9.7 | 0.00 | 0.00 | 0.00 | 49 | 1014.4 |
| 20260905195503 | 22 | 237 | 4.8 | 12.9 | 0.00 | 0.00 | 0.00 | 50 | 1014.4 |
| 20260905195024 | 22 | 247 | 4.8 | 12.9 | 0.00 | 0.00 | 0.00 | 48 | 1014.4 |
| 20260905194503 | 22 | 260 | 3.2 | 11.3 | 0.00 | 0.00 | 0.00 | 50 | 1014.4 |
| 20260905194003 | 22 | 266 | 3.2 | 12.9 | 0.00 | 0.00 | 0.00 | 51 | 1014.4 |
| 20260905193503 | 22 | 261 | 3.2 | 12.9 | 0.00 | 0.00 | 0.00 | 50 | 1014.4 |
| 20260905193003 | 22 | 229 | 3.2 | 11.3 | 0.00 | 0.00 | 0.00 | 53 | 1014.4 |
| 20260905192503 | 21 | 225 | 3.2 | 12.9 | 0.00 | 0.00 | 0.00 | 53 | 1014.4 |
| 20260905192024 | 21 | 255 | 3.2 | 12.9 | 0.00 | 0.00 | 0.00 | 51 | 1014.4 |
| 20260905191503 | 21 | 250 | 3.2 | 11.3 | 0.00 | 0.00 | 0.00 | 54 | 1014.4 |
| 20260905191003 | 21 | 229 | 3.2 | 11.3 | 0.00 | 0.00 | 0.00 | 56 | 1014.4 |
| 20260905190503 | 21 | 227 | 3.2 | 12.9 | 0.00 | 0.00 | 0.00 | 57 | 1014.4 |
| 20260905190003 | 21 | 241 | 3.2 | 12.9 | 0.00 | 0.00 | 0.00 | 57 | 1014.4 |
| 20260905185503 | 21 | 249 | 3.2 | 6.4 | 0.00 | 0.00 | 0.00 | 60 | 1014.4 |
| 20260905185003 | 20 | 251 | 3.2 | 4.8 | 0.00 | 0.00 | 0.00 | 61 | 1014.4 |
| 20260905184503 | 20 | 235 | 3.2 | 8.0 | 0.00 | 0.00 | 0.00 | 64 | 1014.4 |
| 20260905184003 | 20 | 239 | 4.8 | 12.9 | 0.00 | 0.00 | 0.00 | 61 | 1014.4 |
| 20260905183503 | 20 | 244 | 4.8 | 12.9 | 0.00 | 0.00 | 0.00 | 62 | 1014.4 |
| 20260905183003 | 20 | 237 | 4.8 | 11.3 | 0.00 | 0.00 | 0.00 | 62 | 1014.4 |
| 20260905182503 | 20 | 235 | 3.2 | 11.3 | 0.00 | 0.00 | 0.00 | 61 | 1014.4 |
| 20260905182024 | 20 | 227 | 3.2 | 9.7 | 0.00 | 0.00 | 0.00 | 63 | 1014.4 |
| 20260905181524 | 19 | 230 | 3.2 | 8.0 | 0.00 | 0.00 | 0.00 | 63 | 1014.4 |
| 20260905181003 | 19 | 230 | 3.2 | 8.0 | 0.00 | 0.00 | 0.00 | 62 | 1014.4 |
| 20260905180503 | 19 | 230 | 3.2 | 8.0 | 0.00 | 0.00 | 0.00 | 65 | 1014.4 |
| 20260905180003 | 18 | 249 | 1.6 | 6.4 | 0.00 | 0.00 | 0.00 | 68 | 1014.4 |
| 20260905175503 | 18 | 244 | 3.2 | 8.0 | 0.00 | 0.00 | 0.00 | 68 | 1014.4 |
| 20260905175003 | 18 | 227 | 3.2 | 8.0 | 0.00 | 0.00 | 0.00 | 69 | 1014.4 |
| 20260905174503 | 18 | 205 | 3.2 | 11.3 | 0.00 | 0.00 | 0.00 | 69 | 1014.4 |
| 20260905174003 | 18 | 223 | 3.2 | 11.3 | 0.00 | 0.00 | 0.00 | 70 | 1014.4 |
| 20260905173503 | 18 | 231 | 3.2 | 9.7 | 0.00 | 0.00 | 0.00 | 71 | 1014.4 |
| 20260905173024 | 18 | 228 | 4.8 | 9.7 | 0.00 | 0.00 | 0.00 | 71 | 1014.4 |
| 20260905172503 | 18 | 230 | 3.2 | 9.7 | 0.00 | 0.00 | 0.00 | 72 | 1014.4 |
| 20260905172003 | 17 | 230 | 3.2 | 8.0 | 0.00 | 0.00 | 0.00 | 73 | 1014.4 |
| 20260905171503 | 17 | 237 | 1.6 | 8.0 | 0.00 | 0.00 | 0.00 | 73 | 1014.4 |
| 20260905171003 | 17 | 242 | 0.0 | 4.8 | 0.00 | 0.00 | 0.00 | 73 | 1014.4 |
| 20260905170503 | 17 | 0 | 0.0 | 0.0 | 0.00 | 0.00 | 0.00 | 74 | 1014.4 |
| 20260905170003 | 17 | 0 | 0.0 | 0.0 | 0.00 | 0.00 | 0.00 | 74 | 1014.4 |
| 20260905165503 | 17 | 0 | 0.0 | 0.0 | 0.00 | 0.00 | 0.00 | 75 | 1014.4 |
| 20260905165003 | 17 | 0 | 0.0 | 0.0 | 0.00 | 0.00 | 0.00 | 75 | 1014.4 |
| 20260905164503 | 16 | 0 | 0.0 | 0.0 | 0.00 | 0.00 | 0.00 | 76 | 1014.4 |
| 20260905164024 | 16 | 0 | 0.0 | 0.0 | 0.00 | 0.00 | 0.00 | 76 | 1014.4 |
| 20260905163503 | 16 | 0 | 0.0 | 0.0 | 0.00 | 0.00 | 0.00 | 77 | 1014.4 |
| 20260905163003 | 16 | 0 | 0.0 | 0.0 | 0.00 | 0.00 | 0.00 | 77 | 1014.4 |
| 20260905162503 | 16 | 0 | 0.0 | 0.0 | 0.00 | 0.00 | 0.00 | 78 | 1014.4 |
| 20260905162003 | 16 | 0 | 0.0 | 0.0 | 0.00 | 0.00 | 0.00 | 79 | 1014.4 |
| 20260905161503 | 16 | 0 | 0.0 | 0.0 | 0.00 | 0.00 | 0.00 | 81 | 1014.4 |
| 20260905161003 | 15 | 0 | 0.0 | 0.0 | 0.00 | 0.00 | 0.00 | 83 | 1014.4 |
| 20260905160503 | 15 | 0 | 0.0 | 0.0 | 0.00 | 0.00 | 0.00 | 86 | 1014.4 |
| 20260905160003 | 15 | 0 | 0.0 | 0.0 | 0.00 | 0.00 | 0.00 | 88 | 1014.4 |
| 20260905155503 | 15 | 0 | 0.0 | 0.0 | 0.00 | 0.00 | 0.00 | 89 | 1014.4 |
| 20260905155024 | 14 | 0 | 0.0 | 0.0 | 0.00 | 0.00 | 0.00 | 90 | 1014.4 |
| 20260905154503 | 14 | 0 | 0.0 | 0.0 | 0.00 | 0.00 | 0.00 | 91 | 1014.4 |
| 20260905154003 | 14 | 0 | 0.0 | 0.0 | 0.00 | 0.00 | 0.00 | 92 | 1014.4 |
| 20260905153503 | 13 | 0 | 0.0 | 0.0 | 0.00 | 0.00 | 0.00 | 92 | 1014.4 |
| 20260905153003 | 13 | 0 | 0.0 | 0.0 | 0.00 | 0.00 | 0.00 | 92 | 1014.4 |
| 20260905152503 | 13 | 0 | 0.0 | 0.0 | 0.00 | 0.00 | 0.00 | 92 | 1014.4 |
| 20260905152024 | 13 | 0 | 0.0 | 0.0 | 0.00 | 0.00 | 0.00 | 92 | 1014.4 |
| 20260905151503 | 13 | 0 | 0.0 | 0.0 | 0.00 | 0.00 | 0.00 | 93 | 1014.4 |
| 20260905151003 | 13 | 0 | 0.0 | 0.0 | 0.00 | 0.00 | 0.00 | 93 | 1014.4 |
| 20260905150503 | 13 | 0 | 0.0 | 0.0 | 0.00 | 0.00 | 0.00 | 93 | 1014.4 |
| 20260905150003 | 13 | 182 | 0.0 | 1.6 | 0.00 | 0.00 | 0.00 | 93 | 1014.4 |
| 20260905145524 | 13 | 182 | 0.0 | 1.6 | 0.00 | 0.00 | 0.00 | 93 | 1014.4 |
| 20260905145003 | 13 | 182 | 0.0 | 3.2 | 0.00 | 0.00 | 0.00 | 93 | 1014.4 |
| 20260905144503 | 13 | 182 | 0.0 | 3.2 | 0.00 | 0.00 | 0.00 | 93 | 1014.4 |
| 20260905144003 | 13 | 182 | 0.0 | 1.6 | 0.00 | 0.00 | 0.00 | 93 | 1014.3 |
| 20260905143503 | 12 | 182 | 0.0 | 3.2 | 0.00 | 0.00 | 0.00 | 93 | 1014.3 |
| 20260905143003 | 12 | 182 | 0.0 | 3.2 | 0.00 | 0.00 | 0.00 | 93 | 1014.3 |
| 20260905142503 | 12 | 182 | 0.0 | 1.6 | 0.00 | 0.00 | 0.00 | 93 | 1014.3 |
| 20260905142003 | 12 | 182 | 0.0 | 1.6 | 0.00 | 0.00 | 0.00 | 93 | 1014.3 |
| 20260905141503 | 12 | 182 | 0.0 | 1.6 | 0.00 | 0.00 | 0.00 | 93 | 1014.3 |
| 20260905141003 | 12 | 182 | 0.0 | 3.2 | 0.00 | 0.00 | 0.00 | 93 | 1014.3 |
| 20260905140503 | 12 | 182 | 1.6 | 4.8 | 0.00 | 0.00 | 0.00 | 93 | 1014.3 |
| 20260905140003 | 12 | 183 | 1.6 | 6.4 | 0.00 | 0.00 | 0.00 | 93 | 1014.3 |
| 20260905135503 | 12 | 184 | 1.6 | 6.4 | 0.00 | 0.00 | 0.00 | 93 | 1014.3 |
| 20260905135003 | 12 | 184 | 1.6 | 4.8 | 0.00 | 0.00 | 0.00 | 93 | 1014.3 |
| 20260905134503 | 12 | 184 | 1.6 | 4.8 | 0.00 | 0.00 | 0.00 | 93 | 1014.3 |
| 20260905134003 | 12 | 184 | 1.6 | 4.8 | 0.00 | 0.00 | 0.00 | 93 | 1014.3 |
| 20260905133503 | 12 | 185 | 1.6 | 6.4 | 0.00 | 0.00 | 0.00 | 93 | 1014.3 |
| 20260905133003 | 12 | 186 | 1.6 | 6.4 | 0.00 | 0.00 | 0.00 | 93 | 1014.3 |
| 20260905132503 | 13 | 185 | 1.6 | 6.4 | 0.00 | 0.00 | 0.00 | 93 | 1014.3 |